FW1349 Weather Reports


Display with metric or nautical units.
time (UTC)temp
F
wind
direction
speed
MPH
gust
MPH
rain 1hr
in
rain 24hr
in
rain mn
in
humidity
%
barometer
mb
20260831212516 95 23 1.0 3.0 0.00 0.00 0.00 38
20260831211516 95 135 2.0 4.0 0.00 0.00 0.00 40
20260831210537 94 135 2.0 4.0 0.00 0.00 0.00 40
20260831205517 94 90 2.0 4.0 0.00 0.00 0.00 39
20260831204536 94 90 2.0 4.0 0.00 0.00 0.00 37
20260831203516 93 45 2.0 5.0 0.00 0.00 0.00 43
20260831202516 93 113 2.0 3.0 0.00 0.00 0.00 40
20260831201516 94 113 2.0 6.0 0.00 0.00 0.00 42
20260831200517 94 135 2.0 4.0 0.00 0.00 0.00 39
20260831195516 94 113 2.0 5.0 0.00 0.00 0.00 41
20260831194537 93 45 2.0 5.0 0.00 0.00 0.00 44
20260831193516 93 135 2.0 4.0 0.00 0.00 0.00 41
20260831192515 92 90 2.0 5.0 0.00 0.00 0.00 40
20260831191516 92 135 3.0 9.0 0.00 0.00 0.00 40
20260831190515 92 68 2.0 5.0 0.00 0.00 0.00 44
20260831185515 91 135 2.0 4.0 0.00 0.00 0.00 50
20260831184515 91 113 3.0 7.0 0.00 0.00 0.00 46
20260831183518 91 135 3.0 7.0 0.00 0.00 0.00 50
20260831182517 90 293 2.0 5.0 0.00 0.00 0.00 53
20260831181518 89 90 2.0 5.0 0.00 0.00 0.00 53
20260831180538 89 68 2.0 4.0 0.00 0.00 0.00 61
20260831175518 88 68 2.0 5.0 0.00 0.00 0.00 64
20260831174517 87 68 2.0 5.0 0.00 0.00 0.00 66
20260831173537 87 68 1.0 4.0 0.00 0.00 0.00 68
20260831172538 86 68 2.0 4.0 0.00 0.00 0.00 68
20260831171517 86 90 1.0 4.0 0.00 0.00 0.00 70
20260831170517 86 338 2.0 4.0 0.00 0.00 0.00 70
20260831165517 85 113 2.0 5.0 0.00 0.00 0.00 71
20260831164518 85 68 2.0 4.0 0.00 0.00 0.00 71
20260831163517 85 90 2.0 4.0 0.00 0.00 0.00 73
20260831162517 84 23 1.0 2.0 0.00 0.00 0.00 76
20260831161517 84 113 2.0 3.0 0.00 0.00 0.00 75
20260831160557 83 113 1.0 3.0 0.00 0.00 0.00 76
20260831155538 83 113 1.0 3.0 0.00 0.00 0.00 76
20260831154516 83 68 2.0 4.0 0.00 0.00 0.00 78
20260831153517 82 315 1.0 3.0 0.00 0.00 0.00 80
20260831152517 81 270 1.0 3.0 0.00 0.00 0.00 81
20260831151516 81 135 1.0 4.0 0.00 0.00 0.00 82
20260831150517 80 68 2.0 5.0 0.00 0.00 0.00 83
20260831145517 79 45 1.0 2.0 0.00 0.00 0.00 84
20260831144517 78 338 1.0 6.0 0.00 0.00 0.00 87
20260831143517 77 90 1.0 4.0 0.00 0.00 0.00 89
20260831142517 77 23 1.0 3.0 0.00 0.00 0.00 91
20260831141516 76 45 1.0 5.0 0.00 0.00 0.00 92
20260831140517 75 225 1.0 3.0 0.00 0.00 0.00 93
20260831135536 74 45 1.0 4.0 0.00 0.00 0.00 93
20260831134537 74 0.0 2.0 0.00 0.00 0.00 93
20260831133517 74 158 1.0 3.0 0.00 0.00 0.00 93
20260831132516 73 68 2.0 5.0 0.00 0.00 0.00 93
20260831131516 73 90 1.0 3.0 0.00 0.00 0.00 94
20260831130516 73 90 1.0 4.0 0.00 0.00 0.00 93
20260831125517 72 0.0 2.0 0.00 0.00 0.00 93
20260831124516 72 0.0 0.0 0.00 0.00 0.00 93
20260831123517 72 0.0 0.0 0.00 0.00 0.00 93
20260831122536 72 0.0 0.0 0.00 0.00 0.00 92
20260831121516 72 0.0 0.0 0.00 0.00 0.00 92
20260831120516 71 0.0 0.0 0.00 0.00 0.00 91
20260831115516 71 0.0 0.0 0.00 0.00 0.00 91
20260831114515 71 0.0 0.0 0.00 0.00 0.00 91
20260831113515 71 0.0 0.0 0.00 0.00 0.00 91
20260831112515 72 0.0 0.0 0.00 0.00 0.00 91
20260831111516 72 0.0 0.0 0.00 0.00 0.00 91
20260831110516 72 0.0 0.0 0.00 0.00 0.00 91
20260831105515 72 0.0 0.0 0.00 0.00 0.00 91
20260831104515 72 0.0 0.0 0.00 0.00 0.00 91
20260831103516 72 0.0 0.0 0.00 0.00 0.00 91
20260831102518 72 0.0 2.0 0.00 0.00 0.00 91
20260831101517 72 0.0 0.0 0.00 0.00 0.00 90
20260831100517 72 0.0 0.0 0.00 0.00 0.00 90
20260831095518 73 0.0 0.0 0.00 0.00 0.00 90
20260831094517 73 0.0 0.0 0.00 0.00 0.00 90
20260831093538 73 0.0 0.0 0.00 0.00 0.00 90
20260831092518 73 0.0 0.0 0.00 0.00 0.00 90
20260831091517 73 0.0 0.0 0.00 0.00 0.00 90
20260831090517 73 0.0 0.0 0.00 0.00 0.00 90
20260831085538 74 0.0 0.0 0.00 0.00 0.00 90
20260831084518 74 0.0 1.0 0.00 0.00 0.00 89
20260831083517 74 0.0 0.0 0.00 0.00 0.00 89
20260831082518 74 0.0 0.0 0.00 0.00 0.00 89
20260831081518 74 0.0 2.0 0.00 0.00 0.00 89
20260831080517 74 0.0 1.0 0.00 0.00 0.00 89
20260831075517 74 0.0 3.0 0.00 0.00 0.00 89
20260831074517 74 0.0 2.0 0.00 0.00 0.00 88
20260831073538 74 0.0 3.0 0.00 0.00 0.00 88
20260831072517 74 248 1.0 2.0 0.00 0.00 0.00 88
20260831071517 74 0.0 1.0 0.00 0.00 0.00 88
20260831070516 74 0.0 1.0 0.00 0.00 0.00 87
20260831065517 74 0.0 0.0 0.00 0.00 0.00 87
20260831064517 74 0.0 3.0 0.00 0.00 0.00 87
20260831063516 74 0.0 3.0 0.00 0.00 0.00 87
20260831062516 74 270 1.0 3.0 0.00 0.00 0.00 87
20260831061516 74 0.0 0.0 0.00 0.00 0.00 86
20260831060517 74 0.0 1.0 0.00 0.00 0.00 86
20260831055516 74 0.0 2.0 0.00 0.00 0.00 85
20260831054517 75 0.0 1.0 0.00 0.00 0.00 85
20260831053536 75 0.0 2.0 0.00 0.00 0.00 85
20260831052517 75 0.0 0.0 0.00 0.00 0.00 85
20260831051516 75 0.0 2.0 0.00 0.00 0.00 84
20260831050516 75 0.0 1.0 0.00 0.00 0.00 84
20260831045515 75 0.0 0.0 0.00 0.00 0.00 83
20260831044515 76 0.0 2.0 0.00 0.00 0.00 83
20260831043515 76 0.0 1.0 0.00 0.00 0.00 83
20260831042516 76 270 1.0 3.0 0.00 0.00 0.00 83
20260831041517 76 0.0 2.0 0.00 0.00 0.00 83
20260831040538 76 225 1.0 2.0 0.00 0.00 0.00 82
20260831035538 76 225 1.0 3.0 0.00 0.00 0.00 82
20260831034517 76 158 1.0 3.0 0.00 0.00 0.00 82
20260831033517 77 135 1.0 3.0 0.00 0.00 0.00 81
20260831032538 77 180 1.0 3.0 0.00 0.00 0.00 80
20260831031517 77 225 1.0 5.0 0.00 0.00 0.00 79
20260831030517 77 248 1.0 3.0 0.00 0.00 0.00 79
20260831025517 78 0.0 2.0 0.00 0.00 0.00 78
20260831024538 78 113 1.0 4.0 0.00 0.00 0.00 77
20260831023517 78 293 1.0 3.0 0.00 0.00 0.00 77
20260831022538 79 225 1.0 6.0 0.00 0.00 0.00 76
20260831021517 79 135 1.0 2.0 0.00 0.00 0.00 75
20260831020517 80 0.0 2.0 0.00 0.00 0.00 74
20260831015517 80 225 1.0 6.0 0.00 0.00 0.00 73
20260831014517 80 225 1.0 3.0 0.00 0.00 0.00 72
20260831013538 81 0 1.0 6.0 0.00 0.00 0.00 70
20260831012516 81 203 1.0 4.0 0.00 0.00 0.00 69
20260831011516 82 315 2.0 10.0 0.00 0.00 0.00 67
20260831010537 82 315 2.0 6.0 0.00 0.00 0.00 65
20260831005517 83 225 3.0 10.0 0.00 0.00 0.00 64
20260831004517 84 248 4.0 11.0 0.00 0.00 0.00 62
20260831003517 84 315 2.0 5.0 0.00 0.00 0.00 64
20260831002517 85 113 1.0 3.0 0.00 0.00 0.00 65
20260831001516 86 270 1.0 4.0 0.00 0.00 0.00 63
20260831000517 86 0.0 0.0 0.00 0.00 0.00 61
20260830235556 86 135 1.0 2.0 0.00 0.00 0.00 61
20260830234516 87 248 3.0 6.0 0.00 0.00 0.00 61
20260830233517 88 270 3.0 8.0 0.00 0.00 0.00 62
20260830232516 88 248 2.0 4.0 0.00 0.00 0.00 62
20260830231516 88 225 1.0 4.0 0.00 0.00 0.00 62
20260830230516 89 113 1.0 2.0 0.00 0.00 0.00 62
20260830225537 89 203 1.0 4.0 0.00 0.00 0.00 61
20260830224516 89 248 1.0 4.0 0.00 0.00 0.00 62
20260830223516 90 180 1.0 4.0 0.00 0.00 0.00 63
20260830222516 90 180 1.0 3.0 0.00 0.00 0.00 63
20260830221516 90 0.0 2.0 0.00 0.00 0.00 64
20260830220516 90 23 1.0 3.0 0.00 0.00 0.00 65
20260830215516 89 23 1.0 4.0 0.00 0.00 0.00 64
20260830214516 89 90 1.0 4.0 0.00 0.00 0.00 64
20260830213515 89 0.0 2.0 0.00 0.00 0.00 64